| time (UTC) | temp F | wind direction | speed knots | gust knots | rain 1hr in | rain 24hr in | rain mn in | humidity % | barometer mb |
| 20260505011551 | 78 | 0 | 0.0 | 0.0 | 0.00 | 0.00 | 0.00 | 50 | 1001.5 |
| 20260505010058 | 79 | 0 | 0.0 | 0.0 | 0.00 | 0.00 | 0.00 | 48 | 1001.3 |
| 20260505004548 | 80 | 0 | 0.0 | 0.9 | 0.00 | 0.00 | 0.00 | 46 | 1001.1 |
| 20260505003054 | 80 | 0 | 0.0 | 0.9 | 0.00 | 0.00 | 0.00 | 43 | 1001.0 |
| 20260505001548 | 80 | 257 | 0.0 | 0.9 | 0.00 | 0.00 | 0.00 | 42 | 1001.0 |
| 20260505000047 | 80 | 229 | 0.0 | 2.6 | 0.00 | 0.00 | 0.00 | 42 | 1001.0 |
| 20260504234548 | 80 | 0 | 0.0 | 3.5 | 0.00 | 0.00 | 0.00 | 42 | 1001.0 |
| 20260504233100 | 81 | 0 | 0.0 | 4.3 | 0.00 | 0.00 | 0.00 | 43 | 1000.9 |
| 20260504231546 | 81 | 204 | 0.0 | 6.1 | 0.00 | 0.00 | 0.00 | 42 | 1001.0 |
| 20260504230053 | 82 | 124 | 0.9 | 7.8 | 0.00 | 0.00 | 0.00 | 41 | 1001.0 |
| 20260504224550 | 82 | 130 | 0.9 | 8.7 | 0.00 | 0.00 | 0.00 | 41 | 1001.0 |
| 20260504223047 | 83 | 0 | 1.7 | 7.8 | 0.00 | 0.00 | 0.00 | 40 | 1001.0 |
| 20260504221544 | 84 | 127 | 0.9 | 4.3 | 0.00 | 0.00 | 0.00 | 38 | 1000.9 |
| 20260504220048 | 84 | 152 | 1.7 | 7.0 | 0.00 | 0.00 | 0.00 | 37 | 1001.1 |
| 20260504214555 | 84 | 304 | 0.9 | 8.7 | 0.00 | 0.00 | 0.00 | 37 | 1001.1 |
| 20260504213051 | 84 | 133 | 0.9 | 8.7 | 0.00 | 0.00 | 0.00 | 37 | 1001.3 |
| 20260504211549 | 84 | 132 | 0.9 | 6.1 | 0.00 | 0.00 | 0.00 | 36 | 1001.3 |
| 20260504210104 | 83 | 155 | 0.9 | 6.1 | 0.00 | 0.00 | 0.00 | 35 | 1001.4 |
| 20260504204559 | 83 | 142 | 0.9 | 6.1 | 0.00 | 0.00 | 0.00 | 37 | 1001.6 |
| 20260504203102 | 82 | 256 | 0.0 | 7.8 | 0.00 | 0.00 | 0.00 | 38 | 1001.7 |
| 20260504201551 | 82 | 148 | 0.9 | 8.7 | 0.00 | 0.00 | 0.00 | 38 | 1001.9 |
| 20260504200049 | 82 | 0 | 0.9 | 7.0 | 0.00 | 0.00 | 0.00 | 39 | 1001.9 |
| 20260504194600 | 81 | 147 | 0.9 | 4.3 | 0.00 | 0.00 | 0.00 | 41 | 1002.0 |
| 20260504193051 | 81 | 147 | 0.9 | 9.6 | 0.00 | 0.00 | 0.00 | 41 | 1002.1 |
| 20260504191555 | 81 | 131 | 0.9 | 4.3 | 0.00 | 0.00 | 0.00 | 42 | 1002.0 |
| 20260504190112 | 81 | 182 | 0.9 | 7.0 | 0.00 | 0.00 | 0.00 | 42 | 1002.0 |
| 20260504184552 | 80 | 188 | 0.9 | 8.7 | 0.00 | 0.00 | 0.00 | 44 | 1002.1 |
| 20260504183049 | 80 | 257 | 0.9 | 7.0 | 0.00 | 0.00 | 0.00 | 44 | 1002.3 |
| 20260504181544 | 79 | 0 | 1.7 | 7.0 | 0.00 | 0.00 | 0.00 | 43 | 1002.3 |
| 20260504180051 | 79 | 0 | 0.9 | 7.0 | 0.00 | 0.00 | 0.00 | 41 | 1002.3 |
| 20260504174555 | 78 | 147 | 0.9 | 6.1 | 0.00 | 0.00 | 0.00 | 45 | 1002.6 |
| 20260504173048 | 78 | 211 | 0.9 | 6.1 | 0.00 | 0.00 | 0.00 | 44 | 1002.6 |
| 20260504171543 | 77 | 195 | 1.7 | 7.0 | 0.00 | 0.00 | 0.00 | 44 | 1002.8 |
| 20260504081600 | 62 | 0 | 0.0 | 0.9 | 0.00 | 0.00 | 0.00 | 60 | 1005.1 |
| 20260504060104 | 67 | 0 | 0.0 | 0.0 | 0.00 | 0.00 | 0.00 | 53 | 1006.8 |
| 20260504050114 | 70 | 0 | 0.0 | 0.9 | 0.00 | 0.00 | 0.00 | 48 | 1007.5 |
| 20260504044550 | 70 | 0 | 0.0 | 8.7 | 0.00 | 0.00 | 0.00 | 49 | 1008.1 |
| 20260504043106 | 68 | 0 | 0.0 | 0.9 | 0.00 | 0.00 | 0.00 | 53 | 1007.7 |
| 20260504041548 | 68 | 0 | 0.0 | 0.9 | 0.00 | 0.00 | 0.00 | 53 | 1007.5 |
| 20260504040059 | 67 | 0 | 0.0 | 0.9 | 0.00 | 0.00 | 0.00 | 56 | 1007.6 |
| 20260504034552 | 66 | 0 | 0.0 | 1.7 | 0.00 | 0.00 | 0.00 | 58 | 1007.6 |
| 20260504033054 | 65 | 0 | 0.0 | 0.9 | 0.00 | 0.00 | 0.00 | 61 | 1008.0 |
| 20260504031547 | 66 | 0 | 0.0 | 0.0 | 0.00 | 0.00 | 0.00 | 61 | 1007.9 |
| 20260504030048 | 66 | 0 | 0.0 | 0.0 | 0.00 | 0.00 | 0.00 | 61 | 1007.6 |
| 20260504024549 | 67 | 0 | 0.0 | 0.0 | 0.00 | 0.00 | 0.00 | 59 | 1007.7 |
| 20260504023046 | 68 | 0 | 0.0 | 0.0 | 0.00 | 0.00 | 0.00 | 57 | 1007.7 |
| 20260504021547 | 69 | 0 | 0.0 | 0.0 | 0.00 | 0.00 | 0.00 | 54 | 1007.6 |
| 20260504020047 | 70 | 0 | 0.0 | 0.0 | 0.00 | 0.00 | 0.00 | 51 | 1007.5 |
| 20260504014600 | 72 | 0 | 0.0 | 0.0 | 0.00 | 0.00 | 0.00 | 49 | 1007.5 |
| 20260504013107 | 74 | 0 | 0.0 | 0.0 | 0.00 | 0.00 | 0.00 | 45 | 1007.4 |